This is the latest recevied weather packets stored in our database for station/object E7HQ-1. If no packets are shown the sender has not sent any weather packets the latest 10 day(s).
| Time | Temp. | Humidity | Pressure | Rain* | Wind** | Luminosity | Snow |
|---|---|---|---|---|---|---|---|
| 1777815832 | 19.44° C | 30% | 1028.6 hPa | - | - | - | - |
| 1777814932 | 19.44° C | 29% | 1028.7 hPa | - | - | - | - |
| 1777814031 | 19.44° C | 30% | 1028.7 hPa | - | - | - | - |
| 1777813131 | 20° C | 30% | 1028.9 hPa | - | - | - | - |
| 1777812231 | 20° C | 31% | 1029.1 hPa | - | - | - | - |
| 1777811331 | 20.56° C | 32% | 1029.1 hPa | - | - | - | - |
| 1777810431 | 20.56° C | 31% | 1029.2 hPa | - | - | - | - |
| 1777809529 | 20.56° C | 32% | 1029.3 hPa | - | - | - | - |
| 1777808629 | 20° C | 31% | 1029.3 hPa | - | - | - | - |
| 1777807734 | 20° C | 31% | 1029.5 hPa | - | - | - | - |
| 1777806834 | 20.56° C | 31% | 1029.6 hPa | - | - | - | - |
| 1777805934 | 20.56° C | 31% | 1029.7 hPa | - | - | - | - |
| 1777805034 | 20.56° C | 30% | 1029.9 hPa | - | - | - | - |
| 1777804134 | 20° C | 32% | 1029.8 hPa | - | - | - | - |
| 1777803233 | 19.44° C | 30% | 1029.9 hPa | - | - | - | - |
| 1777802333 | 18.89° C | 33% | 1030 hPa | - | - | - | - |
| 1777801433 | 19.44° C | 31% | 1030 hPa | - | - | - | - |
| 1777800532 | 20° C | 32% | 1030 hPa | - | - | - | - |
| 1777799632 | 20° C | 30% | 1030 hPa | - | - | - | - |
| 1777798732 | 20° C | 31% | 1030.1 hPa | - | - | - | - |
| 1777797832 | 20° C | 30% | 1030.1 hPa | - | - | - | - |
| 1777796931 | 19.44° C | 32% | 1030.1 hPa | - | - | - | - |
| 1777796031 | 19.44° C | 33% | 1030.1 hPa | - | - | - | - |
| 1777795131 | 18.89° C | 33% | 1030.1 hPa | - | - | - | - |
| 1777794231 | 17.78° C | 34% | 1030.1 hPa | - | - | - | - |
* Rain since midnight (hover to see other rain measurements)
** Current wind speed in m/s (hover to see current wind gust speed)